Time,TemperatureF,DewpointF,PressureIn,WindDirection,WindDirectionDegrees,WindSpeedMPH,WindSpeedGustMPH,Humidity,HourlyPrecipIn,Conditions,Clouds,dailyrainin,SoftwareType,DateUTC
2013-08-23 00:00:00,77.6,73.1,30.04,WNW,292,0.0,0.0,86,0.00,,,0.00,VWS V14.01,2013-08-23 05:00:00,
2013-08-23 00:30:00,76.8,72.6,30.04,WNW,292,0.0,0.0,87,0.00,,,0.00,VWS V14.01,2013-08-23 05:30:00,
2013-08-23 01:00:00,76.2,72.1,30.05,WNW,292,0.0,0.0,87,0.00,,,0.00,VWS V14.01,2013-08-23 06:00:00,
2013-08-23 01:30:00,75.5,70.7,30.05,WNW,292,0.0,0.0,85,0.00,,,0.00,VWS V14.01,2013-08-23 06:30:00,
2013-08-23 02:00:00,75.4,70.2,30.05,WNW,292,0.0,0.0,84,0.00,,,0.00,VWS V14.01,2013-08-23 07:00:00,
2013-08-23 02:30:00,75.3,70.1,30.04,WNW,292,0.0,0.0,84,0.00,,,0.00,VWS V14.01,2013-08-23 07:30:00,
2013-08-23 03:00:00,75.1,69.6,30.04,WNW,292,0.0,0.0,83,0.00,,,0.00,VWS V14.01,2013-08-23 08:00:00,
2013-08-23 03:30:00,74.6,69.4,30.04,WNW,292,0.0,0.0,84,0.00,,,0.00,VWS V14.01,2013-08-23 08:30:00,
2013-08-23 04:00:00,73.7,68.9,30.05,WNW,292,0.0,0.0,85,0.00,,,0.00,VWS V14.01,2013-08-23 09:00:00,
2013-08-23 04:30:00,73.1,68.3,30.06,WNW,292,0.0,0.0,85,0.00,,,0.00,VWS V14.01,2013-08-23 09:30:00,
2013-08-23 05:00:00,72.7,68.3,30.06,WNW,292,0.0,0.0,86,0.00,,,0.00,VWS V14.01,2013-08-23 10:00:00,
2013-08-23 05:30:00,72.4,68.0,30.06,WNW,292,0.0,0.0,86,0.00,,,0.00,VWS V14.01,2013-08-23 10:30:00,
2013-08-23 06:00:00,72.2,67.8,30.06,WNW,292,0.0,0.0,86,0.00,,,0.00,VWS V14.01,2013-08-23 11:00:00,
2013-08-23 06:30:00,72.2,67.8,30.07,ENE,68,0.0,3.0,86,0.00,,,0.00,VWS V14.01,2013-08-23 11:30:00,
2013-08-23 07:00:00,71.8,67.7,30.08,ENE,68,0.0,0.0,87,0.00,,,0.00,VWS V14.01,2013-08-23 12:00:00,
2013-08-23 07:30:00,71.6,67.9,30.08,ENE,68,0.0,0.0,88,0.00,,,0.00,VWS V14.01,2013-08-23 12:30:00,
2013-08-23 08:00:00,71.3,67.6,30.09,ENE,68,0.0,0.0,88,0.00,,,0.00,VWS V14.01,2013-08-23 13:00:00,
2013-08-23 08:30:00,71.6,68.2,30.08,ENE,68,0.0,0.0,89,0.00,,,0.00,VWS V14.01,2013-08-23 13:30:00,
2013-08-23 09:00:00,72.8,68.7,30.09,ENE,68,0.0,1.0,87,0.00,,,0.00,VWS V14.01,2013-08-23 14:00:00,
2013-08-23 09:30:00,73.9,69.1,30.09,ENE,68,0.0,0.0,85,0.00,,,0.00,VWS V14.01,2013-08-23 14:30:00,
2013-08-23 10:00:00,75.8,70.3,30.08,ENE,68,0.0,0.0,83,0.00,,,0.00,VWS V14.01,2013-08-23 15:00:00,
2013-08-23 10:30:00,77.7,70.7,30.09,ENE,68,0.0,1.0,79,0.00,,,0.00,VWS V14.01,2013-08-23 15:30:00,
2013-08-23 11:00:00,80.4,71.8,30.09,ENE,68,0.0,3.0,75,0.00,,,0.00,VWS V14.01,2013-08-23 16:00:00,
2013-08-23 11:30:00,83.0,71.8,30.09,ENE,68,0.0,3.0,69,0.00,,,0.00,VWS V14.01,2013-08-23 16:30:00,
2013-08-23 12:00:00,84.5,72.3,30.09,East,90,1.0,5.0,67,0.00,,,0.00,VWS V14.01,2013-08-23 17:00:00,
2013-08-23 12:30:00,85.7,73.5,30.09,ESE,112,0.0,6.0,67,0.00,,,0.00,VWS V14.01,2013-08-23 17:30:00,
2013-08-23 13:00:00,86.4,74.2,30.08,ESE,112,0.0,5.0,67,0.00,,,0.00,VWS V14.01,2013-08-23 18:00:00,
2013-08-23 13:30:00,87.8,73.6,30.08,SE,135,0.0,4.0,63,0.00,,,0.00,VWS V14.01,2013-08-23 18:30:00,
2013-08-23 14:00:00,87.7,74.0,30.08,SE,135,0.0,5.0,64,0.00,,,0.00,VWS V14.01,2013-08-23 19:00:00,
2013-08-23 14:30:00,88.4,73.2,30.07,SE,135,1.0,6.0,61,0.00,,,0.00,VWS V14.01,2013-08-23 19:30:00,
2013-08-23 15:00:00,88.5,73.3,30.05,East,90,0.0,5.0,61,0.00,,,0.00,VWS V14.01,2013-08-23 20:00:00,
2013-08-23 15:30:00,88.2,72.6,30.06,East,90,1.0,9.0,60,0.00,,,0.00,VWS V14.01,2013-08-23 20:30:00,
2013-08-23 15:50:00,88.2,71.6,30.03,East,90,0.0,2.0,58,0.00,,,0.00,VWS V14.01,2013-08-23 20:50:00,
2013-08-23 15:55:00,88.0,71.4,30.03,East,90,0.0,5.0,58,0.00,,,0.00,VWS V14.01,2013-08-23 20:55:00,
2013-08-23 16:00:00,88.0,71.4,30.03,East,98,0.0,5.0,58,0.00,,,0.00,VWS V14.01,2013-08-23 21:00:00,
2013-08-23 16:05:00,88.2,71.6,30.03,ESE,121,0.0,7.0,58,0.00,,,0.00,VWS V14.01,2013-08-23 21:05:00,
2013-08-23 16:10:00,88.3,71.2,30.03,SSE,159,1.0,7.0,57,0.00,,,0.00,VWS V14.01,2013-08-23 21:10:00,
2013-08-23 16:15:00,88.3,70.6,30.03,SSE,148,0.0,7.0,56,0.00,,,0.00,VWS V14.01,2013-08-23 21:15:00,
2013-08-23 16:20:00,88.2,71.1,30.03,SE,138,0.0,7.0,57,0.00,,,0.00,VWS V14.01,2013-08-23 21:20:00,
2013-08-23 16:25:00,88.2,71.6,30.03,SE,138,0.0,7.0,58,0.00,,,0.00,VWS V14.01,2013-08-23 21:25:00,
2013-08-23 16:30:00,88.2,70.0,30.02,ESE,117,0.0,7.0,55,0.00,,,0.00,VWS V14.01,2013-08-23 21:30:00,
2013-08-23 16:35:00,87.9,70.3,30.03,ESE,116,0.0,4.0,56,0.00,,,0.00,VWS V14.01,2013-08-23 21:35:00,
2013-08-23 16:40:00,87.7,70.1,30.02,ESE,115,0.0,4.0,56,0.00,,,0.00,VWS V14.01,2013-08-23 21:40:00,
2013-08-23 16:45:00,87.6,70.5,30.02,ESE,115,0.0,5.0,57,0.00,,,0.00,VWS V14.01,2013-08-23 21:45:00,
2013-08-23 16:50:00,87.7,70.6,30.02,ESE,116,1.0,5.0,57,0.00,,,0.00,VWS V14.01,2013-08-23 21:50:00,
2013-08-23 16:55:00,87.9,71.3,30.02,ESE,116,0.0,5.0,58,0.00,,,0.00,VWS V14.01,2013-08-23 21:55:00,
2013-08-23 17:00:00,88.0,70.3,30.02,SE,126,0.0,5.0,56,0.00,,,0.00,VWS V14.01,2013-08-23 22:00:00,
2013-08-23 17:05:00,87.9,70.3,30.03,SE,126,1.0,1.0,56,0.00,,,0.00,VWS V14.01,2013-08-23 22:05:00,
2013-08-23 17:10:00,87.9,70.3,30.03,SE,126,0.0,2.0,56,0.00,,,0.00,VWS V14.01,2013-08-23 22:10:00,
2013-08-23 17:15:00,87.9,70.3,30.03,SE,130,1.0,5.0,56,0.00,,,0.00,VWS V14.01,2013-08-23 22:15:00,
2013-08-23 17:20:00,87.8,70.7,30.03,SE,129,0.0,5.0,57,0.00,,,0.00,VWS V14.01,2013-08-23 22:20:00,
2013-08-23 17:25:00,87.7,70.1,30.03,SE,127,4.0,5.0,56,0.00,,,0.00,VWS V14.01,2013-08-23 22:25:00,
2013-08-23 17:30:00,87.5,69.4,30.03,SE,134,0.0,0.0,55,0.00,,,0.00,VWS V14.01,2013-08-23 22:30:00,
2013-08-23 17:35:00,87.3,70.2,30.03,SE,127,0.0,5.0,57,0.00,,,0.00,VWS V14.01,2013-08-23 22:35:00,
2013-08-23 17:40:00,87.3,70.7,30.03,SE,127,0.0,5.0,58,0.00,,,0.00,VWS V14.01,2013-08-23 22:40:00,
2013-08-23 17:45:00,87.3,71.2,30.03,SE,127,0.0,5.0,59,0.00,,,0.00,VWS V14.01,2013-08-23 22:45:00,
2013-08-23 17:50:00,87.1,70.0,30.03,SE,127,0.0,5.0,57,0.00,,,0.00,VWS V14.01,2013-08-23 22:50:00,
2013-08-23 17:55:00,86.9,70.4,30.02,SE,127,0.0,5.0,58,0.00,,,0.00,VWS V14.01,2013-08-23 22:55:00,
2013-08-23 18:00:00,86.8,70.3,30.03,SE,127,0.0,5.0,58,0.00,,,0.00,VWS V14.01,2013-08-23 23:00:00,
2013-08-23 18:05:00,86.6,70.1,30.03,SE,128,2.0,4.0,58,0.00,,,0.00,VWS V14.01,2013-08-23 23:05:00,
2013-08-23 18:10:00,86.4,69.9,30.03,ESE,123,0.0,4.0,58,0.00,,,0.00,VWS V14.01,2013-08-23 23:10:00,
2013-08-23 18:15:00,86.3,69.8,30.03,ESE,123,0.0,4.0,58,0.00,,,0.00,VWS V14.01,2013-08-23 23:15:00,
2013-08-23 18:20:00,86.2,69.7,30.03,SE,124,0.0,4.0,58,0.00,,,0.00,VWS V14.01,2013-08-23 23:20:00,
2013-08-23 18:25:00,86.1,69.6,30.03,SE,126,0.0,5.0,58,0.00,,,0.00,VWS V14.01,2013-08-23 23:25:00,
2013-08-23 18:30:00,86.0,69.5,30.03,SE,126,0.0,5.0,58,0.00,,,0.00,VWS V14.01,2013-08-23 23:30:00,
2013-08-23 18:35:00,85.9,69.9,30.03,SE,126,0.0,0.0,59,0.00,,,0.00,VWS V14.01,2013-08-23 23:35:00,
2013-08-23 18:40:00,85.8,69.8,30.03,SE,126,0.0,2.0,59,0.00,,,0.00,VWS V14.01,2013-08-23 23:40:00,
2013-08-23 18:45:00,85.6,70.1,30.03,SE,126,0.0,2.0,60,0.00,,,0.00,VWS V14.01,2013-08-23 23:45:00,
2013-08-23 18:50:00,85.4,69.9,30.03,SE,126,0.0,2.0,60,0.00,,,0.00,VWS V14.01,2013-08-23 23:50:00,
2013-08-23 18:55:00,85.2,70.2,30.03,SE,126,0.0,2.0,61,0.00,,,0.00,VWS V14.01,2013-08-23 23:55:00,
2013-08-23 19:00:00,85.0,70.1,30.03,SE,126,0.0,2.0,61,0.00,,,0.00,VWS V14.01,2013-08-24 00:00:00,
2013-08-23 19:05:00,84.7,69.8,30.03,SE,126,0.0,0.0,61,0.00,,,0.00,VWS V14.01,2013-08-24 00:05:00,
2013-08-23 19:10:00,84.4,70.4,30.03,SE,126,0.0,0.0,63,0.00,,,0.00,VWS V14.01,2013-08-24 00:10:00,
2013-08-23 19:15:00,84.3,70.3,30.04,SE,126,0.0,0.0,63,0.00,,,0.00,VWS V14.01,2013-08-24 00:15:00,
2013-08-23 19:20:00,84.0,70.1,30.04,SE,126,0.0,0.0,63,0.00,,,0.00,VWS V14.01,2013-08-24 00:20:00,
2013-08-23 19:25:00,83.7,70.2,30.04,SE,126,0.0,0.0,64,0.00,,,0.00,VWS V14.01,2013-08-24 00:25:00,
2013-08-23 19:30:00,83.5,70.5,30.04,SE,126,0.0,0.0,65,0.00,,,0.00,VWS V14.01,2013-08-24 00:30:00,
2013-08-23 19:35:00,83.2,70.2,30.05,SE,126,0.0,0.0,65,0.00,,,0.00,VWS V14.01,2013-08-24 00:35:00,
2013-08-23 19:40:00,83.0,70.5,30.04,SE,126,0.0,0.0,66,0.00,,,0.00,VWS V14.01,2013-08-24 00:40:00,
2013-08-23 19:45:00,82.7,70.2,30.05,SE,126,0.0,0.0,66,0.00,,,0.00,VWS V14.01,2013-08-24 00:45:00,
2013-08-23 19:50:00,82.4,70.3,30.05,SE,126,0.0,0.0,67,0.00,,,0.00,VWS V14.01,2013-08-24 00:50:00,
2013-08-23 19:55:00,82.2,70.2,30.05,SE,126,0.0,0.0,67,0.00,,,0.00,VWS V14.01,2013-08-24 00:55:00,
2013-08-23 20:00:00,81.9,70.3,30.05,SE,126,0.0,0.0,68,0.00,,,0.00,VWS V14.01,2013-08-24 01:00:00,
2013-08-23 20:05:00,81.6,70.4,30.05,SE,126,0.0,0.0,69,0.00,,,0.00,VWS V14.01,2013-08-24 01:05:00,
2013-08-23 20:10:00,81.2,70.1,30.05,SE,126,0.0,0.0,69,0.00,,,0.00,VWS V14.01,2013-08-24 01:10:00,
2013-08-23 20:15:00,80.9,70.2,30.05,SE,126,0.0,0.0,70,0.00,,,0.00,VWS V14.01,2013-08-24 01:15:00,
2013-08-23 20:20:00,80.5,70.2,30.05,SE,126,0.0,0.0,71,0.00,,,0.00,VWS V14.01,2013-08-24 01:20:00,
2013-08-23 20:26:00,80.3,70.5,30.05,SE,126,0.0,0.0,72,0.00,,,0.00,VWS V14.01,2013-08-24 01:26:00,
2013-08-23 20:30:00,83.5,70.5,30.04,SE,126,0.0,0.0,65,0.00,,,0.00,VWS V14.01,2013-08-24 01:30:00,
2013-08-23 20:31:00,80.0,70.2,30.06,SE,126,0.0,0.0,72,0.00,,,0.00,VWS V14.01,2013-08-24 01:31:00,
2013-08-23 20:36:00,79.8,70.4,30.06,SE,126,0.0,0.0,73,0.00,,,0.00,VWS V14.01,2013-08-24 01:36:00,
2013-08-23 20:41:00,79.6,70.6,30.06,SE,126,0.0,0.0,74,0.00,,,0.00,VWS V14.01,2013-08-24 01:41:00,
2013-08-23 20:46:00,79.4,70.8,30.06,SE,126,0.0,0.0,75,0.00,,,0.00,VWS V14.01,2013-08-24 01:46:00,
2013-08-23 20:51:00,79.2,70.6,30.06,SE,126,0.0,0.0,75,0.00,,,0.00,VWS V14.01,2013-08-24 01:51:00,
2013-08-23 20:56:00,79.0,70.8,30.06,SE,126,0.0,0.0,76,0.00,,,0.00,VWS V14.01,2013-08-24 01:56:00,
2013-08-23 21:00:00,81.9,70.3,30.05,SE,126,0.0,0.0,68,0.00,,,0.00,VWS V14.01,2013-08-24 02:00:00,
2013-08-23 21:01:00,78.8,70.6,30.06,SE,126,0.0,0.0,76,0.00,,,0.00,VWS V14.01,2013-08-24 02:01:00,
2013-08-23 21:06:00,78.6,70.4,30.07,SE,126,0.0,0.0,76,0.00,,,0.00,VWS V14.01,2013-08-24 02:06:00,
2013-08-23 21:11:00,78.5,70.7,30.07,SE,126,0.0,0.0,77,0.00,,,0.00,VWS V14.01,2013-08-24 02:11:00,
2013-08-23 21:16:00,78.5,70.7,30.07,SE,126,0.0,0.0,77,0.00,,,0.00,VWS V14.01,2013-08-24 02:16:00,
2013-08-23 21:21:00,78.5,70.3,30.07,SE,126,0.0,0.0,76,0.00,,,0.00,VWS V14.01,2013-08-24 02:21:00,
2013-08-23 21:26:00,78.5,70.3,30.07,SE,126,0.0,0.0,76,0.00,,,0.00,VWS V14.01,2013-08-24 02:26:00,
2013-08-23 21:30:00,80.0,70.2,30.05,SE,126,0.0,0.0,72,0.00,,,0.00,VWS V14.01,2013-08-24 02:30:00,
2013-08-23 21:31:00,78.5,69.9,30.07,SE,126,0.0,0.0,75,0.00,,,0.00,VWS V14.01,2013-08-24 02:31:00,
2013-08-23 21:36:00,78.5,69.9,30.07,SE,126,0.0,0.0,75,0.00,,,0.00,VWS V14.01,2013-08-24 02:36:00,
2013-08-23 21:41:00,78.5,69.9,30.07,SE,126,0.0,0.0,75,0.00,,,0.00,VWS V14.01,2013-08-24 02:41:00,
2013-08-23 21:46:00,78.4,69.8,30.07,SE,126,0.0,0.0,75,0.00,,,0.00,VWS V14.01,2013-08-24 02:46:00,
2013-08-23 21:51:00,78.3,69.7,30.07,SE,126,0.0,0.0,75,0.00,,,0.00,VWS V14.01,2013-08-24 02:51:00,
2013-08-23 21:56:00,78.2,69.6,30.08,SE,126,0.0,0.0,75,0.00,,,0.00,VWS V14.01,2013-08-24 02:56:00,
2013-08-23 22:00:00,78.8,70.6,30.06,SE,126,0.0,0.0,76,0.00,,,0.00,VWS V14.01,2013-08-24 03:00:00,
2013-08-23 22:01:00,78.2,69.6,30.07,SE,126,0.0,0.0,75,0.00,,,0.00,VWS V14.01,2013-08-24 03:01:00,
2013-08-23 22:06:00,78.2,69.6,30.08,SE,126,0.0,0.0,75,0.00,,,0.00,VWS V14.01,2013-08-24 03:06:00,
2013-08-23 22:11:00,78.1,69.5,30.08,SE,126,0.0,0.0,75,0.00,,,0.00,VWS V14.01,2013-08-24 03:11:00,
2013-08-23 22:16:00,78.0,69.4,30.08,SE,126,0.0,0.0,75,0.00,,,0.00,VWS V14.01,2013-08-24 03:16:00,
2013-08-23 22:21:00,78.0,69.4,30.08,SE,126,0.0,0.0,75,0.00,,,0.00,VWS V14.01,2013-08-24 03:21:00,
2013-08-23 22:26:00,78.0,69.4,30.07,SE,126,0.0,0.0,75,0.00,,,0.00,VWS V14.01,2013-08-24 03:26:00,
2013-08-23 22:30:00,78.5,70.3,30.07,SE,126,0.0,0.0,76,0.00,,,0.00,VWS V14.01,2013-08-24 03:30:00,
2013-08-23 22:31:00,77.9,69.3,30.07,SE,126,0.0,0.0,75,0.00,,,0.00,VWS V14.01,2013-08-24 03:31:00,
2013-08-23 22:36:00,77.8,69.2,30.07,SE,126,0.0,0.0,75,0.00,,,0.00,VWS V14.01,2013-08-24 03:36:00,
2013-08-23 22:41:00,77.6,69.4,30.07,SE,126,0.0,0.0,76,0.00,,,0.00,VWS V14.01,2013-08-24 03:41:00,
2013-08-23 22:46:00,77.5,69.3,30.08,SE,126,0.0,0.0,76,0.00,,,0.00,VWS V14.01,2013-08-24 03:46:00,
2013-08-23 22:51:00,77.4,69.2,30.08,SE,126,0.0,0.0,76,0.00,,,0.00,VWS V14.01,2013-08-24 03:51:00,
2013-08-23 22:56:00,77.2,69.4,30.08,SE,126,0.0,0.0,77,0.00,,,0.00,VWS V14.01,2013-08-24 03:56:00,
2013-08-23 23:00:00,78.2,69.6,30.07,SE,126,0.0,0.0,75,0.00,,,0.00,VWS V14.01,2013-08-24 04:00:00,
2013-08-23 23:01:00,77.0,69.2,30.08,SE,126,0.0,0.0,77,0.00,,,0.00,VWS V14.01,2013-08-24 04:01:00,
2013-08-23 23:06:00,76.8,69.4,30.08,SE,126,0.0,0.0,78,0.00,,,0.00,VWS V14.01,2013-08-24 04:06:00,
2013-08-23 23:11:00,76.7,69.3,30.08,SE,126,0.0,0.0,78,0.00,,,0.00,VWS V14.01,2013-08-24 04:11:00,
2013-08-23 23:16:00,76.5,69.5,30.08,SE,126,0.0,0.0,79,0.00,,,0.00,VWS V14.01,2013-08-24 04:16:00,
2013-08-23 23:21:00,76.3,69.3,30.07,SE,126,0.0,0.0,79,0.00,,,0.00,VWS V14.01,2013-08-24 04:21:00,
2013-08-23 23:26:00,76.1,69.1,30.08,SE,126,0.0,0.0,79,0.00,,,0.00,VWS V14.01,2013-08-24 04:26:00,
2013-08-23 23:30:00,77.9,69.3,30.08,SE,126,0.0,0.0,75,0.00,,,0.00,VWS V14.01,2013-08-24 04:30:00,
2013-08-23 23:31:00,75.9,69.3,30.08,SE,126,0.0,0.0,80,0.00,,,0.00,VWS V14.01,2013-08-24 04:31:00,
2013-08-23 23:36:00,75.7,69.1,30.08,SE,126,0.0,0.0,80,0.00,,,0.00,VWS V14.01,2013-08-24 04:36:00,
2013-08-23 23:41:00,75.5,69.3,30.08,SE,126,0.0,0.0,81,0.00,,,0.00,VWS V14.01,2013-08-24 04:41:00,
2013-08-23 23:46:00,75.3,69.1,30.08,SE,126,0.0,0.0,81,0.00,,,0.00,VWS V14.01,2013-08-24 04:46:00,
2013-08-23 23:51:00,75.2,69.0,30.07,SE,126,0.0,0.0,81,0.00,,,0.00,VWS V14.01,2013-08-24 04:51:00,
2013-08-23 23:56:00,75.0,69.1,30.07,SE,126,0.0,0.0,82,0.00,,,0.00,VWS V14.01,2013-08-24 04:56:00,